FW9721 Weather Reports


Display with metric or nautical units.
time (UTC)temp
F
wind
direction
speed
MPH
gust
MPH
rain 1hr
in
rain 24hr
in
rain mn
in
humidity
%
barometer
mb
20260504023045 76 90 8.0 12.0 0.00 0.00 0.00 76 1018.1
20260504021552 76 84 9.0 11.0 0.00 0.00 0.00 75 1017.9
20260504020048 76 77 8.0 12.0 0.00 0.00 0.00 77 1017.6
20260504014559 76 83 8.0 12.0 0.00 0.00 0.00 77 1017.5
20260504013046 76 56 10.0 16.0 0.00 0.00 0.00 77 1017.3
20260504011543 76 78 10.0 17.0 0.00 0.00 0.00 77 1017.4
20260504010049 76 76 10.0 16.0 0.00 0.00 0.00 77 1017.4
20260504004545 76 67 13.0 17.0 0.00 0.00 0.00 76 1017.3
20260504003055 76 94 12.0 16.0 0.00 0.00 0.00 77 1017.4
20260504001604 76 103 13.0 17.0 0.00 0.00 0.00 78 1017.1
20260504000047 76 59 12.0 16.0 0.00 0.00 0.00 79 1017.2
20260503234548 76 30 11.0 19.0 0.00 0.00 0.00 78 1017.2
20260503233042 76 341 11.0 18.0 0.00 0.00 0.00 78 1017.2
20260503231548 75 65 13.0 19.0 0.00 0.00 0.00 78 1017.3
20260503230046 75 64 16.0 20.0 0.00 0.00 0.00 79 1017.4
20260503224546 75 36 14.0 20.0 0.00 0.00 0.00 78 1017.4
20260503223043 75 77 15.0 20.0 0.00 0.00 0.00 78 1017.7
20260503221553 75 82 14.0 20.0 0.00 0.00 0.00 78 1017.9
20260503220050 75 65 15.0 19.0 0.00 0.00 0.00 77 1018.1
20260503214547 75 73 13.0 18.0 0.00 0.00 0.00 77 1018.2
20260503213047 75 73 13.0 15.0 0.00 0.00 0.00 77 1018.4
20260503211545 75 58 11.0 16.0 0.00 0.00 0.00 75 1018.7
20260503210041 75 72 12.0 15.0 0.00 0.00 0.00 75 1018.9
20260503204547 75 77 11.0 16.0 0.00 0.00 0.00 74 1019.2
20260503203047 75 62 13.0 17.0 0.00 0.00 0.00 74 1019.5
20260503201546 75 67 14.0 18.0 0.00 0.00 0.00 73 1019.6
20260503200050 76 39 14.0 18.0 0.00 0.00 0.00 72 1019.9
20260503194548 75 37 11.0 16.0 0.00 0.00 0.00 72 1020.1
20260503193044 75 30 10.0 18.0 0.00 0.00 0.00 73 1020.4
20260503191546 76 60 9.0 14.0 0.00 0.00 0.00 72 1020.8
20260503190046 76 23 9.0 14.0 0.00 0.00 0.00 68 1020.9
20260503184545 76 15 8.0 14.0 0.00 0.00 0.00 68 1021.2
20260503183107 76 340 8.0 12.0 0.00 0.00 0.00 68 1021.4
20260503181618 75 311 9.0 14.0 0.00 0.00 0.00 68 1021.6
20260503180047 75 337 10.0 13.0 0.00 0.00 0.00 68 1021.6
20260503174544 75 347 7.0 12.0 0.00 0.00 0.00 68 1021.8
20260503173055 75 358 9.0 12.0 0.00 0.00 0.00 68 1022.0
20260503171547 74 15 2.0 7.0 0.00 0.00 0.00 68 1021.9
20260503100104 71 295 2.0 7.0 0.00 0.00 0.00 69 1019.8
20260503081542 71 329 10.0 22.0 0.00 0.00 0.00 64 1020.3
20260503071558 71 306 11.0 16.0 0.00 0.00 0.00 66 1020.5
20260503070106 71 310 10.0 13.0 0.00 0.00 0.00 66 1020.4
20260503060113 71 321 7.0 11.0 0.00 0.00 0.00 66 1020.8
20260503054546 71 317 9.0 12.0 0.00 0.00 0.00 66 1020.7
20260503053044 71 326 14.0 20.0 0.00 0.00 0.00 66 1020.6
20260503051544 71 309 13.0 20.0 0.00 0.00 0.00 66 1020.7
20260503050049 71 318 11.0 17.0 0.00 0.00 0.00 66 1020.6
20260503044542 71 316 12.0 22.0 0.00 0.00 0.00 66 1020.5
20260503043042 71 327 12.0 20.0 0.00 0.00 0.00 66 1020.3
20260503041543 71 326 11.0 20.0 0.00 0.00 0.00 67 1020.2
20260503040051 71 313 18.0 28.0 0.00 0.00 0.00 67 1020.1
20260503034539 70 308 14.0 30.0 0.00 0.00 0.00 69 1020.3
20260503033054 70 309 18.0 26.0 0.00 0.00 0.00 70 1020.4
20260503031547 70 335 17.0 25.0 0.00 0.00 0.00 70 1020.4
20260503030046 71 332 15.0 23.0 0.00 0.00 0.00 70 1020.2
20260503024540 71 343 12.0 18.0 0.00 0.00 0.00 70 1020.1